EW6960 Weather Reports


time (UTC)temp
C
wind
direction
speed
KPH
gust
KPH
rain 1hr
cm
rain 24hr
cm
rain mn
cm
humidity
%
barometer
mb
20260510190024 12 250 1.6 4.8 0.00 0.00 0.00 66 1014.7
20260510185003 12 243 1.6 6.4 0.00 0.00 0.00 65 1014.6
20260510184003 12 239 1.6 6.4 0.00 0.00 0.00 64 1014.6
20260510183003 12 277 1.6 6.4 0.00 0.00 0.00 64 1014.6
20260510182003 13 286 1.6 4.8 0.00 0.00 0.00 63 1014.6
20260510181024 13 276 1.6 9.7 0.00 0.00 0.00 63 1014.7
20260510180003 13 256 1.6 11.3 0.00 0.00 0.00 63 1014.9
20260510175003 13 296 1.6 6.4 0.00 0.00 0.00 63 1014.8
20260510174003 13 274 1.6 6.4 0.00 0.00 0.00 63 1014.8
20260510173003 13 276 1.6 6.4 0.00 0.00 0.00 63 1015.0
20260510172003 13 249 3.2 12.9 0.00 0.00 0.00 62 1015.2
20260510171003 14 293 1.6 12.9 0.00 0.00 0.00 62 1015.2
20260510170003 13 276 1.6 12.9 0.00 0.00 0.00 63 1015.3
20260510165003 13 288 1.6 14.5 0.00 0.00 0.00 65 1015.3
20260510164003 13 261 3.2 14.5 0.00 0.00 0.00 65 1015.2
20260510163003 13 282 1.6 11.3 0.00 0.00 0.00 65 1015.4
20260510162003 13 273 3.2 11.3 0.00 0.00 0.00 66 1016.0
20260510161003 13 270 1.6 12.9 0.00 0.00 0.00 65 1015.8
20260510160003 13 268 3.2 12.9 0.00 0.00 0.00 65 1015.9
20260510155003 12 268 1.6 9.7 0.00 0.00 0.00 67 1016.0
20260510154003 12 298 1.6 11.3 0.00 0.00 0.00 67 1016.4
20260510153003 12 271 3.2 11.3 0.00 0.00 0.00 69 1016.1
20260510152003 12 283 1.6 9.7 0.00 0.00 0.00 71 1016.5
20260510151024 12 295 1.6 9.7 0.00 0.00 0.00 71 1016.6
20260510150024 12 263 3.2 9.7 0.00 0.00 0.00 71 1016.6
20260510145003 12 279 3.2 9.7 0.00 0.00 0.00 71 1016.7
20260510144024 12 289 1.6 9.7 0.00 0.00 0.00 72 1017.0
20260510143003 12 262 3.2 14.5 0.00 0.00 0.00 72 1016.8
20260510142002 12 237 3.2 11.3 0.00 0.00 0.00 73 1016.9
20260510141025 12 275 1.6 11.3 0.00 0.00 0.00 73 1017.1
20260510140005 12 285 1.6 9.7 0.00 0.00 0.00 73 1017.3
20260510135003 12 268 3.2 12.9 0.00 0.00 0.00 75 1017.2
20260510134002 12 242 3.2 12.9 0.00 0.00 0.00 75 1017.1
20260510133005 12 242 4.8 12.9 0.00 0.00 0.00 74 1017.1
20260510132002 12 221 3.2 11.3 0.00 0.00 0.00 73 1017.2
20260510131002 12 255 4.8 14.5 0.00 0.00 0.00 74 1017.3
20260510130002 12 272 4.8 16.1 0.00 0.00 0.00 73 1016.9
20260510125002 12 259 4.8 14.5 0.00 0.00 0.00 72 1016.8
20260510124002 12 271 4.8 14.5 0.00 0.00 0.00 73 1017.2
20260510123002 12 245 4.8 14.5 0.00 0.00 0.00 73 1017.2
20260510122002 12 278 3.2 11.3 0.00 0.00 0.00 72 1017.3
20260510121002 12 264 4.8 17.7 0.00 0.00 0.00 71 1017.4
20260510120002 12 250 3.2 16.1 0.00 0.00 0.00 70 1017.4
20260510115002 13 276 4.8 17.7 0.00 0.00 0.00 67 1017.7
20260510114002 13 284 4.8 16.1 0.00 0.00 0.00 69 1017.7
20260510113002 13 268 3.2 12.9 0.00 0.00 0.00 69 1017.7
20260510112002 13 291 4.8 14.5 0.00 0.00 0.00 72 1017.5
20260510111002 12 257 4.8 14.5 0.00 0.00 0.00 72 1017.7
20260510110023 12 264 6.4 22.5 0.00 0.00 0.00 73 1017.8
20260510105002 12 275 6.4 19.3 0.00 0.00 0.00 74 1017.8
20260510104023 12 257 4.8 12.9 0.00 0.00 0.00 75 1018.0
20260510103023 12 232 6.4 22.5 0.00 0.00 0.00 75 1018.1
20260510102002 12 251 4.8 12.9 0.00 0.00 0.00 75 1018.0
20260510101002 12 231 4.8 12.9 0.00 0.00 0.00 75 1018.0
20260510100002 12 275 3.2 17.7 0.00 0.00 0.00 71 1018.3
20260510095002 12 251 3.2 12.9 0.00 0.00 0.00 70 1018.1
20260510094023 12 281 4.8 16.1 0.00 0.00 0.00 70 1018.1
20260510093002 12 293 3.2 14.5 0.00 0.00 0.00 71 1018.3
20260510092002 12 303 4.8 12.9 0.00 0.00 0.00 72 1018.1
20260510091002 13 291 3.2 16.1 0.00 0.00 0.00 70 1017.9
20260510090002 13 261 3.2 14.5 0.00 0.00 0.00 68 1018.4
20260510085002 12 308 3.2 16.1 0.00 0.00 0.00 69 1018.1
20260510084002 12 310 3.2 16.1 0.00 0.00 0.00 71 1018.4
20260510083002 13 308 3.2 11.3 0.00 0.00 0.00 73 1018.4
20260510082002 12 297 3.2 14.5 0.00 0.00 0.00 73 1018.5
20260510081002 11 285 3.2 14.5 0.00 0.00 0.00 74 1018.5
20260510080023 11 299 3.2 14.5 0.00 0.00 0.00 74 1018.5
20260510075002 11 282 1.6 11.3 0.00 0.00 0.00 76 1018.5
20260510074002 10 296 3.2 14.5 0.00 0.00 0.00 78 1018.5
20260510073002 11 276 3.2 14.5 0.00 0.00 0.00 78 1018.5
20260510072002 10 282 3.2 16.1 0.00 0.00 0.00 79 1018.4
20260510071002 10 279 3.2 16.1 0.00 0.00 0.00 79 1018.5
20260510070002 10 279 4.8 14.5 0.00 0.00 0.00 79 1018.5
20260510065002 10 291 3.2 17.7 0.00 0.00 0.00 80 1018.5
20260510064002 10 292 3.2 12.9 0.00 0.00 0.00 81 1018.5
20260510063002 10 282 3.2 12.9 0.00 0.00 0.00 81 1018.6
20260510062002 10 264 4.8 19.3 0.00 0.00 0.00 81 1018.5
20260510061002 10 290 3.2 14.5 0.00 0.00 0.00 81 1018.3
20260510060002 10 279 4.8 12.9 0.00 0.00 0.00 82 1018.3
20260510055023 9 291 4.8 19.3 0.00 0.00 0.00 83 1018.1
20260510054002 9 281 4.8 19.3 0.00 0.00 0.00 83 1018.0
20260510053002 9 297 4.8 16.1 0.00 0.00 0.00 84 1017.9
20260510052002 9 295 4.8 12.9 0.00 0.00 0.00 84 1018.5
20260510051002 9 294 4.8 16.1 0.00 0.00 0.00 85 1018.1
20260510050002 8 313 3.2 16.1 0.00 0.00 0.00 85 1018.3
20260510045002 8 323 3.2 24.1 0.00 0.00 0.00 85 1017.9
20260510044002 8 297 3.2 14.5 0.00 0.00 0.00 85 1018.3
20260510043002 9 294 3.2 14.5 0.00 0.00 0.00 85 1018.5
20260510042003 9 283 3.2 12.9 0.00 0.00 0.00 85 1018.5
20260510041002 8 301 3.2 16.1 0.00 0.00 0.00 85 1018.3
20260510040002 8 286 1.6 12.9 0.00 0.00 0.00 86 1018.5
20260510035002 8 275 3.2 11.3 0.00 0.00 0.00 86 1018.4
20260510034023 8 275 1.6 9.7 0.00 0.00 0.00 86 1018.5
20260510033002 9 283 1.6 6.4 0.00 0.00 0.00 86 1018.6
20260510032023 9 293 1.6 12.9 0.00 0.00 0.00 86 1018.5
20260510031003 9 296 1.6 6.4 0.00 0.00 0.00 86 1018.5
20260510030024 9 275 3.2 14.5 0.00 0.00 0.00 85 1018.5
20260510025002 9 279 1.6 9.7 0.00 0.00 0.00 86 1018.4
20260510024003 9 301 1.6 9.7 0.00 0.00 0.00 86 1018.5
20260510023003 10 281 3.2 12.9 0.00 0.00 0.00 86 1018.4
20260510022023 10 215 3.2 12.9 0.00 0.00 0.00 86 1018.3
20260510021003 10 267 3.2 17.7 0.00 0.00 0.00 85 1018.1
20260510020003 10 247 3.2 11.3 0.00 0.00 0.00 84 1018.0
20260510015003 10 270 1.6 11.3 0.00 0.00 0.00 85 1018.4
20260510014002 10 270 3.2 12.9 0.00 0.00 0.00 85 1018.1
20260510013023 10 270 3.2 12.9 0.00 0.00 0.00 84 1018.3
20260510012002 10 283 3.2 12.9 0.00 0.00 0.00 85 1018.0
20260510011024 10 246 3.2 12.9 0.00 0.00 0.00 85 1018.0
20260510010003 10 313 1.6 12.9 0.00 0.00 0.00 86 1017.9
20260510005002 11 271 4.8 12.9 0.00 0.00 0.00 85 1017.8
20260510004002 11 302 3.2 12.9 0.00 0.00 0.00 85 1017.7
20260510003003 11 259 3.2 11.3 0.00 0.00 0.00 85 1018.0
20260510002002 11 315 3.2 14.5 0.00 0.00 0.00 85 1018.0
20260510001002 11 303 3.2 12.9 0.00 0.00 0.00 85 1017.9
20260510000003 11 221 3.2 12.9 0.00 0.00 0.00 85 1017.8
20260509235002 12 287 4.8 12.9 0.00 0.00 0.00 84 1017.8
20260509234002 12 301 4.8 12.9 0.00 0.00 0.00 84 1017.6
20260509233003 12 306 4.8 17.7 0.00 0.00 0.00 84 1017.6
20260509232003 12 281 4.8 17.7 0.00 0.00 0.00 84 1017.5
20260509231024 12 264 4.8 19.3 0.00 0.00 0.00 84 1017.4
20260509230024 12 272 4.8 19.3 0.00 0.00 0.00 84 1017.5
20260509225003 12 323 4.8 19.3 0.00 0.00 0.00 83 1017.3
20260509224024 13 291 4.8 19.3 0.00 0.00 0.00 83 1017.3
20260509223024 13 227 4.8 17.7 0.00 0.00 0.00 82 1017.0
20260509222003 13 280 3.2 14.5 0.00 0.00 0.00 82 1017.2
20260509221024 13 242 3.2 14.5 0.00 0.00 0.00 82 1017.4
20260509220003 13 278 3.2 14.5 0.00 0.00 0.00 83 1017.1
20260509215024 13 272 4.8 17.7 0.00 0.00 0.00 82 1017.3
20260509214003 13 229 4.8 16.1 0.00 0.00 0.00 81 1017.3
20260509213003 13 234 4.8 16.1 0.00 0.00 0.00 81 1017.3
20260509212003 14 242 4.8 16.1 0.00 0.00 0.00 80 1017.4
20260509211003 14 231 3.2 12.9 0.00 0.00 0.00 80 1017.2
20260509210003 14 246 4.8 14.5 0.00 0.00 0.00 79 1017.0
20260509205024 14 260 4.8 14.5 0.00 0.00 0.00 79 1017.0
20260509204003 15 243 4.8 12.9 0.00 0.00 0.00 78 1017.0
20260509203003 15 243 4.8 14.5 0.00 0.00 0.00 77 1016.8
20260509202003 15 243 4.8 14.5 0.00 0.00 0.00 76 1016.8
20260509201003 15 244 4.8 14.5 0.00 0.00 0.00 75 1016.9
20260509200003 16 256 4.8 17.7 0.00 0.00 0.00 71 1016.7
20260509195003 16 250 1.6 9.7 0.00 0.00 0.00 63 1016.7
20260509194003 16 240 1.6 6.4 0.00 0.00 0.00 62 1016.4
20260509193003 16 248 1.6 4.8 0.00 0.00 0.00 62 1016.3
20260509192003 16 240 1.6 6.4 0.00 0.00 0.00 61 1016.4
20260509191003 17 236 1.6 6.4 0.00 0.00 0.00 60 1016.4